SCP
0 0 0 -0 2 1 1 1 1 1 0 0 0 0 0 0 0 0 0 0 0 0 0 0 0 0 0 0 0 0 0 0 0 0 0 0 0 0
0 0 0 -0 1 2 1 2 1 1 0 0 0 0 0 0 0 0 0 0 0 0 0 0 0 0 0 0 0 0 0 -0 0 0 0 0 0 0
0 0 0 0 1 1 2 1 1 1 1 0 0 0 0 0 0 0 0 0 0 0 0 0 0 0 0 0 0 0 0 -0 0 0 0 0 0 0
0 0 0 0 0 1 1 1 1 1 1 0 0 0 0 0 0 0 0 0 0 0 0 0 0 0 0 0 0 0 -0 0 0 0 0 0 0 0
0 0 0 0 0 1 1 0 0 0 0 0 0 0 0 0 0 0 0 0 0 0 0 0 0 0 0 0 0 0 0 0 0 0 0 0 0 0
0 0 0 0 2 1 1 0 0 0 0 0 0 0 0 0 0 -0 -0 -0 -0 -0 0 0 0 0 0 0 0 0 0 0 0 0 0 0 0 0
0 0 0 0 0 0 0 0 0 0 0 0 0 0 0 0 0 0 -0 -0 -0 0 0 0 0 0 0 0 0 0 0 0 0 0 0 0 0 0
0 0 0 0 0 0 0 0 0 0 0 0 0 0 0 0 0 0 0 0 0 0 -0 -0 -0 -0 0 0 0 0 0 0 0 0 0 0 0 0
0 0 0 0 0 0 0 0 0 0 0 0 0 0 0 0 0 0 0 0 0 0 0 -0 -0 0 0 0 0 0 0 0 0 0 0 0 0 0
0 0 0 0 0 0 0 0 0 0 0 0 0 0 0 0 0 0 0 0 0 0 -0 -0 0 0 0 0 0 0 0 0 0 0 0 0 0 0
0 0 0 0 0 0 0 0 0 0 0 0 0 0 0 0 0 0 0 -0 0 0 0 -0 0 0 0 0 0 0 0 0 0 0 0 0 0 0
0 0 0 0 0 0 0 0 0 0 0 0 0 0 0 0 -0 0 0 -0 0 0 0 -0 0 0 0 0 0 0 0 0 0 0 -0 0 0 0
0 0 0 0 0 -0 -0 0 0 0 0 0 0 0 0 0 0 -0 -0 0 0 0 0 -0 -0 0 0 0 0 0 0 0 0 0 0 0 0 0
0 0 0 0 0 0 -0 0 0 0 0 0 0 0 0 0 0 -0 -0 0 0 0 0 0 -0 0 0 0 0 0 0 0 0 0 0 0 0 0
0 0 0 0 0 0 0 0 0 0 0 0 0 0 0 0 -0 0 -0 -0 -0 0 0 0 0 0 0 -0 0 0 0 0 0 0 0 0 0 0
0 0 0 0 0 0 0 0 0 0 0 0 0 0 0 0 0 0 -0 -0 -0 0 0 0 0 0 -0 0 0 0 0 0 0 0 0 0 0 0
0 0 0 0 0 0 0 0 0 0 0 0 0 0 0 0 0 0 -0 0 0 0 0 0 0 -0 0 -0 -0 0 0 0 0 0 0 0 0 0
0 0 0 0 0 0 0 0 0 0 0 0 0 0 0 0 0 0 0 0 0 0 0 -0 -0 0 -0 -0 0 0 0 0 0 0 0 0 0 0
0 0 0 0 0 0 0 0 0 0 0 0 0 0 0 0 0 0 0 0 0 0 0 0 0 0 0 0 0 -0 0 0 0 0 0 0 0 0
0 0 0 0 0 0 0 0 0 0 0 0 0 0 0 0 0 0 0 0 0 -0 -0 -0 -0 -0 0 0 0 0 0 0 0 0 0 0 0 0
0 0 0 0 0 0 0 0 0 0 0 0 0 0 0 0 0 0 0 0 0 -0 -0 -0 0 -0 0 0 0 0 0 -0 0 0 0 0 0 0
0 0 0 0 0 0 0 0 0 0 0 0 0 0 0 0 0 0 0 0 -0 -0 -0 -0 0 0 0 0 0 0 0 0 0 -0 -0 0 0 0
0 -0 0 0 0 0 0 0 0 0 0 0 0 0 0 0 0 0 0 0 -0 -0 -0 -0 0 0 0 0 0 0 0 0 0 0 0 0 0 -0
Wind_Speed_500mb
69 71 69 96 76 60 47 46 44 51 44 34 33 32 23 29 33 42 48 43 33 40 49 45 53 62 62 66 71 60 58 55 57 52 42 36 34 37
82 98 108 112 96 53 49 45 52 57 47 41 38 31 24 27 29 31 30 34 43 44 48 52 51 60 62 60 54 51 61 56 59 55 46 38 35 38
94 65 77 57 60 58 55 46 43 48 41 40 34 23 15 21 32 41 37 34 36 42 44 42 45 51 55 57 43 45 56 56 61 56 48 40 37 38
92 69 4 57 57 56 42 44 43 42 31 16 17 20 24 27 32 31 26 24 36 42 44 47 41 44 47 46 39 35 50 52 58 55 50 42 39 39
65 51 68 62 50 40 37 43 44 32 21 20 19 23 30 31 24 27 28 25 23 32 40 40 36 44 39 40 40 36 38 51 57 55 49 43 40 40
55 56 63 56 58 66 58 53 46 40 29 29 31 32 33 26 28 39 38 39 44 42 41 37 37 38 39 42 37 39 51 56 52 54 49 43 40 40
39 43 53 60 60 58 49 46 44 41 37 28 19 18 23 19 24 28 35 40 43 44 46 48 45 43 38 37 40 41 49 49 52 52 46 42 40 41
45 44 51 49 47 44 43 37 31 26 19 13 10 16 10 10 18 28 37 43 49 39 41 48 45 48 46 40 32 34 45 41 51 49 44 41 41 41
39 43 47 45 40 46 39 32 28 25 24 16 7 13 17 17 26 36 43 49 54 58 60 65 57 58 49 42 32 29 29 33 37 37 37 40 41 42
41 43 50 47 47 45 45 42 36 33 25 19 19 17 22 25 30 39 48 55 56 57 53 63 52 51 44 38 35 30 36 36 33 25 27 37 43 43
38 48 51 53 46 43 38 37 35 32 28 28 28 25 29 29 34 43 48 53 61 61 52 37 45 50 41 30 31 27 28 29 25 28 28 35 41 43
39 45 57 56 51 48 50 45 43 45 39 37 36 38 42 37 38 44 49 53 56 63 45 53 49 44 30 38 38 31 31 34 30 25 26 30 38 46
51 43 47 70 74 69 58 63 59 54 48 46 47 51 51 49 50 45 53 51 54 58 51 49 40 38 26 23 14 19 27 24 22 24 28 26 35 38
45 50 56 43 54 82 64 63 59 62 59 55 57 58 58 56 52 51 58 55 58 54 46 50 58 21 20 21 16 12 23 19 17 11 16 20 27 32
51 49 58 58 57 56 59 67 65 68 63 64 63 60 58 55 54 58 63 58 51 44 47 46 41 39 27 25 27 22 21 20 15 13 11 9 10 14
62 62 56 59 58 58 51 54 60 62 63 64 66 61 58 57 57 58 60 51 46 48 45 26 25 17 24 28 28 26 24 13 16 16 13 11 10 8
58 58 62 62 62 61 59 60 47 47 58 63 65 63 62 58 58 55 49 50 46 51 44 22 19 23 32 33 32 29 28 22 12 16 16 13 12 10
34 44 55 59 79 72 71 68 64 61 51 57 61 64 61 60 55 50 45 49 47 50 44 22 22 17 27 39 23 23 22 20 18 15 22 20 19 16
37 30 35 47 53 57 64 64 64 67 61 57 58 62 59 53 48 46 47 51 48 50 41 23 24 23 38 24 22 22 19 18 24 28 31 28 25 21
65 45 38 38 43 49 48 45 46 49 46 44 49 51 41 49 50 47 48 52 48 50 40 32 33 37 39 40 27 27 24 16 18 32 36 28 21 18
77 72 47 42 41 45 48 42 40 44 45 46 43 44 45 42 46 51 54 50 47 43 33 32 34 42 36 30 26 29 30 26 22 19 24 18 22 16
89 90 69 45 45 36 41 46 33 43 44 48 51 49 50 50 46 46 44 49 51 38 31 20 47 14 31 30 28 33 32 28 25 23 23 18 17 13
86 88 86 59 48 43 17 34 45 50 37 36 35 38 44 46 51 56 55 60 53 31 19 28 35 36 27 28 33 37 38 33 28 25 25 20 14 13
Wind_Direction_500mb
260 257 251 267 235 221 229 241 246 248 254 271 280 291 293 297 286 280 283 281 278 272 275 275 279 278 281 283 278 263 252 244 244 246 251 256 258 246
262 262 271 272 236 216 222 231 240 248 249 260 272 272 279 286 294 291 301 289 280 284 284 280 284 274 283 288 276 255 247 242 238 240 245 252 257 247
254 255 291 268 237 225 218 227 231 246 247 261 273 268 261 274 282 290 294 290 290 282 287 285 295 284 277 288 275 251 242 237 236 235 241 249 254 246
240 253 193 240 226 231 221 227 232 236 250 246 238 248 252 266 287 299 300 296 288 295 299 295 287 289 288 290 271 257 242 237 234 232 237 245 252 245
237 229 191 187 223 231 250 233 236 234 204 194 218 253 277 287 274 281 306 311 297 288 291 291 284 281 281 290 265 251 248 239 238 230 234 242 249 244
212 199 202 204 205 229 212 217 225 238 226 240 256 276 280 285 296 291 289 285 288 290 294 302 293 286 279 290 272 254 256 258 244 234 231 238 246 240
207 209 208 209 213 216 212 217 224 237 240 238 252 270 275 294 291 316 319 307 300 300 294 284 285 285 280 289 272 258 253 253 241 240 230 238 242 236
221 213 213 207 210 218 215 224 213 195 206 207 236 265 286 304 343 348 339 324 319 321 309 299 294 283 287 290 272 276 255 252 246 238 231 238 240 233
222 212 208 212 219 209 210 204 203 215 225 236 254 281 304 356 351 345 334 324 316 314 312 304 294 293 287 283 274 262 262 244 225 225 234 240 239 233
228 209 205 201 208 210 211 212 217 223 235 256 267 291 320 347 339 333 330 325 320 321 322 311 309 298 292 276 264 242 231 227 216 218 241 245 237 232
237 221 212 208 223 226 227 231 236 246 252 263 274 294 306 327 327 320 322 325 326 330 343 321 333 322 299 271 253 241 244 221 225 234 253 242 228 228
258 247 223 219 214 223 237 233 238 251 256 269 272 287 296 304 312 311 323 321 323 320 316 319 321 318 304 281 240 232 220 214 225 239 252 240 229 226
255 253 246 246 263 237 243 245 247 261 261 268 271 279 289 295 301 310 323 318 315 306 317 319 297 323 298 280 184 227 222 225 235 247 250 238 227 227
267 257 250 241 242 248 242 244 251 257 261 263 266 276 286 293 298 307 318 319 310 299 307 306 299 249 281 239 199 252 221 212 221 251 223 218 216 225
260 252 248 247 250 247 253 248 254 257 260 260 263 273 283 290 294 308 317 316 307 305 302 301 290 282 254 248 227 254 235 210 211 211 210 207 214 234
260 251 245 244 245 247 248 246 250 253 255 260 266 271 275 280 291 308 313 321 316 318 318 294 278 288 246 237 243 239 230 209 189 165 161 177 189 198
256 250 248 244 242 243 244 245 252 255 252 255 258 262 265 274 287 307 310 319 308 315 317 303 248 247 235 236 260 240 228 213 184 178 181 182 197 192
241 242 238 242 239 239 245 251 254 254 256 256 255 256 260 271 291 299 305 306 306 308 307 282 227 255 247 259 243 201 196 206 212 196 186 186 185 188
252 247 239 230 239 243 248 252 253 255 258 261 258 252 258 276 286 288 294 300 301 306 298 276 214 240 232 215 185 177 175 190 192 185 185 195 192 197
252 250 244 235 230 240 243 243 245 247 247 249 251 252 253 272 274 274 285 295 296 302 289 279 240 244 247 229 187 182 180 167 176 184 180 186 176 171
246 242 238 233 220 231 235 240 240 239 241 242 234 245 261 256 266 274 282 285 289 298 278 271 253 227 263 200 184 166 165 161 161 166 161 167 168 164
237 236 229 229 212 216 229 231 238 237 240 237 241 244 254 256 259 268 270 278 295 289 263 295 288 225 184 193 176 162 158 153 158 162 161 171 174 177
230 231 229 222 215 207 207 225 229 237 230 230 234 241 247 256 265 272 273 275 288 279 247 250 259 178 184 172 167 153 145 146 147 154 154 147 147 139
Wind_Speed_850mb
69 71 69 96 76 60 47 46 44 51 44 34 33 32 23 29 33 42 48 43 33 40 49 45 53 62 62 66 71 60 58 55 57 52 42 36 34 37
82 98 108 112 96 53 49 45 52 57 47 41 38 31 24 27 29 31 30 34 43 44 48 52 51 60 62 60 54 51 61 56 59 55 46 38 35 38
94 65 77 57 60 58 55 46 43 48 41 40 34 23 15 21 32 41 37 34 36 42 44 42 45 51 55 57 43 45 56 56 61 56 48 40 37 38
92 69 4 57 57 56 42 44 43 42 31 16 17 20 24 27 32 31 26 24 36 42 44 47 41 44 47 46 39 35 50 52 58 55 50 42 39 39
65 51 68 62 50 40 37 43 44 32 21 20 19 23 30 31 24 27 28 25 23 32 40 40 36 44 39 40 40 36 38 51 57 55 49 43 40 40
55 56 63 56 58 66 58 53 46 40 29 29 31 32 33 26 28 39 38 39 44 42 41 37 37 38 39 42 37 39 51 56 52 54 49 43 40 40
39 43 53 60 60 58 49 46 44 41 37 28 19 18 23 19 24 28 35 40 43 44 46 48 45 43 38 37 40 41 49 49 52 52 46 42 40 41
45 44 51 49 47 44 43 37 31 26 19 13 10 16 10 10 18 28 37 43 49 39 41 48 45 48 46 40 32 34 45 41 51 49 44 41 41 41
39 43 47 45 40 46 39 32 28 25 24 16 7 13 17 17 26 36 43 49 54 58 60 65 57 58 49 42 32 29 29 33 37 37 37 40 41 42
41 43 50 47 47 45 45 42 36 33 25 19 19 17 22 25 30 39 48 55 56 57 53 63 52 51 44 38 35 30 36 36 33 25 27 37 43 43
38 48 51 53 46 43 38 37 35 32 28 28 28 25 29 29 34 43 48 53 61 61 52 37 45 50 41 30 31 27 28 29 25 28 28 35 41 43
39 45 57 56 51 48 50 45 43 45 39 37 36 38 42 37 38 44 49 53 56 63 45 53 49 44 30 38 38 31 31 34 30 25 26 30 38 46
51 43 47 70 74 69 58 63 59 54 48 46 47 51 51 49 50 45 53 51 54 58 51 49 40 38 26 23 14 19 27 24 22 24 28 26 35 38
45 50 56 43 54 82 64 63 59 62 59 55 57 58 58 56 52 51 58 55 58 54 46 50 58 21 20 21 16 12 23 19 17 11 16 20 27 32
51 49 58 58 57 56 59 67 65 68 63 64 63 60 58 55 54 58 63 58 51 44 47 46 41 39 27 25 27 22 21 20 15 13 11 9 10 14
62 62 56 59 58 58 51 54 60 62 63 64 66 61 58 57 57 58 60 51 46 48 45 26 25 17 24 28 28 26 24 13 16 16 13 11 10 8
58 58 62 62 62 61 59 60 47 47 58 63 65 63 62 58 58 55 49 50 46 51 44 22 19 23 32 33 32 29 28 22 12 16 16 13 12 10
34 44 55 59 79 72 71 68 64 61 51 57 61 64 61 60 55 50 45 49 47 50 44 22 22 17 27 39 23 23 22 20 18 15 22 20 19 16
37 30 35 47 53 57 64 64 64 67 61 57 58 62 59 53 48 46 47 51 48 50 41 23 24 23 38 24 22 22 19 18 24 28 31 28 25 21
65 45 38 38 43 49 48 45 46 49 46 44 49 51 41 49 50 47 48 52 48 50 40 32 33 37 39 40 27 27 24 16 18 32 36 28 21 18
77 72 47 42 41 45 48 42 40 44 45 46 43 44 45 42 46 51 54 50 47 43 33 32 34 42 36 30 26 29 30 26 22 19 24 18 22 16
89 90 69 45 45 36 41 46 33 43 44 48 51 49 50 50 46 46 44 49 51 38 31 20 47 14 31 30 28 33 32 28 25 23 23 18 17 13
86 88 86 59 48 43 17 34 45 50 37 36 35 38 44 46 51 56 55 60 53 31 19 28 35 36 27 28 33 37 38 33 28 25 25 20 14 13
Wind_Direction_850mb
260 257 251 267 235 221 229 241 246 248 254 271 280 291 293 297 286 280 283 281 278 272 275 275 279 278 281 283 278 263 252 244 244 246 251 256 258 246
262 262 271 272 236 216 222 231 240 248 249 260 272 272 279 286 294 291 301 289 280 284 284 280 284 274 283 288 276 255 247 242 238 240 245 252 257 247
254 255 291 268 237 225 218 227 231 246 247 261 273 268 261 274 282 290 294 290 290 282 287 285 295 284 277 288 275 251 242 237 236 235 241 249 254 246
240 253 193 240 226 231 221 227 232 236 250 246 238 248 252 266 287 299 300 296 288 295 299 295 287 289 288 290 271 257 242 237 234 232 237 245 252 245
237 229 191 187 223 231 250 233 236 234 204 194 218 253 277 287 274 281 306 311 297 288 291 291 284 281 281 290 265 251 248 239 238 230 234 242 249 244
212 199 202 204 205 229 212 217 225 238 226 240 256 276 280 285 296 291 289 285 288 290 294 302 293 286 279 290 272 254 256 258 244 234 231 238 246 240
207 209 208 209 213 216 212 217 224 237 240 238 252 270 275 294 291 316 319 307 300 300 294 284 285 285 280 289 272 258 253 253 241 240 230 238 242 236
221 213 213 207 210 218 215 224 213 195 206 207 236 265 286 304 343 348 339 324 319 321 309 299 294 283 287 290 272 276 255 252 246 238 231 238 240 233
222 212 208 212 219 209 210 204 203 215 225 236 254 281 304 356 351 345 334 324 316 314 312 304 294 293 287 283 274 262 262 244 225 225 234 240 239 233
228 209 205 201 208 210 211 212 217 223 235 256 267 291 320 347 339 333 330 325 320 321 322 311 309 298 292 276 264 242 231 227 216 218 241 245 237 232
237 221 212 208 223 226 227 231 236 246 252 263 274 294 306 327 327 320 322 325 326 330 343 321 333 322 299 271 253 241 244 221 225 234 253 242 228 228
258 247 223 219 214 223 237 233 238 251 256 269 272 287 296 304 312 311 323 321 323 320 316 319 321 318 304 281 240 232 220 214 225 239 252 240 229 226
255 253 246 246 263 237 243 245 247 261 261 268 271 279 289 295 301 310 323 318 315 306 317 319 297 323 298 280 184 227 222 225 235 247 250 238 227 227
267 257 250 241 242 248 242 244 251 257 261 263 266 276 286 293 298 307 318 319 310 299 307 306 299 249 281 239 199 252 221 212 221 251 223 218 216 225
260 252 248 247 250 247 253 248 254 257 260 260 263 273 283 290 294 308 317 316 307 305 302 301 290 282 254 248 227 254 235 210 211 211 210 207 214 234
260 251 245 244 245 247 248 246 250 253 255 260 266 271 275 280 291 308 313 321 316 318 318 294 278 288 246 237 243 239 230 209 189 165 161 177 189 198
256 250 248 244 242 243 244 245 252 255 252 255 258 262 265 274 287 307 310 319 308 315 317 303 248 247 235 236 260 240 228 213 184 178 181 182 197 192
241 242 238 242 239 239 245 251 254 254 256 256 255 256 260 271 291 299 305 306 306 308 307 282 227 255 247 259 243 201 196 206 212 196 186 186 185 188
252 247 239 230 239 243 248 252 253 255 258 261 258 252 258 276 286 288 294 300 301 306 298 276 214 240 232 215 185 177 175 190 192 185 185 195 192 197
252 250 244 235 230 240 243 243 245 247 247 249 251 252 253 272 274 274 285 295 296 302 289 279 240 244 247 229 187 182 180 167 176 184 180 186 176 171
246 242 238 233 220 231 235 240 240 239 241 242 234 245 261 256 266 274 282 285 289 298 278 271 253 227 263 200 184 166 165 161 161 166 161 167 168 164
237 236 229 229 212 216 229 231 238 237 240 237 241 244 254 256 259 268 270 278 295 289 263 295 288 225 184 193 176 162 158 153 158 162 161 171 174 177
230 231 229 222 215 207 207 225 229 237 230 230 234 241 247 256 265 272 273 275 288 279 247 250 259 178 184 172 167 153 145 146 147 154 154 147 147 139